Volver al catálogo

INTELSAT 15

ActivoComunicacionesGEO
NORAD 36106·PAYLOAD· XX

Lanzado Nov 30, 2009 desde Baikonur Cosmodrome

Loading…

TLE

ActualizadoSource: CelesTrak SupGP

Época: Sep 14, 2026, 00:00 UTC

1 36106C 09067A   26257.00000000 -.00000095  00000+0  00000+0 0  2570
2 36106   0.0000 171.3649 0002293   4.2237 262.5401  1.00271578    15

Sigue INTELSAT 15 en tiempo real con AllMySat

Download on the App Store